SQ3VAS-10 Weather Reports


Display with metric or nautical units.
time (UTC)temp
F
wind
direction
speed
MPH
gust
MPH
rain 1hr
in
rain 24hr
in
rain mn
in
humidity
%
barometer
mb
20260502162922 87 0.0 0.0 0.00 0.00 0.00 16 1016.7
20260502161948 89 0.0 0.0 0.00 0.00 0.00 16 1016.8
20260502161015 88 0.0 0.0 0.00 0.00 0.00 17 1016.9
20260502152229 90 0.0 0.0 0.00 0.00 0.00 16 1017.5
20260502151255 89 0.0 0.0 0.00 0.00 0.00 18 1017.7
20260502150321 90 0.0 0.0 0.00 0.00 0.00 17 1017.9
20260502123026 88 0.0 0.0 0.00 0.00 0.00 19 1020.0
20260502122052 87 0.0 0.0 0.00 0.00 0.00 21 1020.2
20260502121119 86 0.0 0.0 0.00 0.00 0.00 19 1020.2
20260502120146 86 0.0 0.0 0.00 0.00 0.00 20 1020.5
20260502115212 85 0.0 0.0 0.00 0.00 0.00 20 1020.7
20260502114240 84 0.0 0.0 0.00 0.00 0.00 21 1020.9
20260502113306 87 0.0 0.0 0.00 0.00 0.00 20 1020.8
20260502112332 85 0.0 0.0 0.00 0.00 0.00 20 1021.0
20260502111359 82 0.0 0.0 0.00 0.00 0.00 22 1021.2
20260502110426 83 0.0 0.0 0.00 0.00 0.00 22 1021.2
20260502105452 84 0.0 0.0 0.00 0.00 0.00 22 1021.3
20260502104518 83 0.0 0.0 0.00 0.00 0.00 23 1021.5
20260502103544 84 0.0 0.0 0.00 0.00 0.00 24 1021.5
20260502102612 82 0.0 0.0 0.00 0.00 0.00 24 1021.9
20260502101640 83 0.0 0.0 0.00 0.00 0.00 22 1021.9
20260502090937 77 0.0 0.0 0.00 0.00 0.00 26 1022.8
20260502071456 76 0.0 0.0 0.00 0.00 0.00 28 1023.6
20260502070520 75 0.0 0.0 0.00 0.00 0.00 30 1023.7
20260502065545 71 0.0 0.0 0.00 0.00 0.00 34 1023.9
20260502064610 70 0.0 0.0 0.00 0.00 0.00 35 1024.1
20260502063632 69 0.0 0.0 0.00 0.00 0.00 36 1024.0
20260502062653 64 0.0 0.0 0.00 0.00 0.00 43 1024.2
20260502061718 61 0.0 0.0 0.00 0.00 0.00 48 1024.5
20260502060744 58 0.0 0.0 0.00 0.00 0.00 56 1024.5
20260502055811 56 0.0 0.0 0.00 0.00 0.00 59 1024.6
20260502054836 55 0.0 0.0 0.00 0.00 0.00 60 1024.6
20260502053902 52 0.0 0.0 0.00 0.00 0.00 64 1024.7
20260502052929 51 0.0 0.0 0.00 0.00 0.00 66 1024.7
20260502051955 50 0.0 0.0 0.00 0.00 0.00 69 1024.8
20260502051023 48 0.0 0.0 0.00 0.00 0.00 71 1024.8
20260502050050 47 0.0 0.0 0.00 0.00 0.00 73 1024.9
20260502045117 46 0.0 0.0 0.00 0.00 0.00 73 1025.0
20260502044143 45 0.0 0.0 0.00 0.00 0.00 75 1025.0
20260502043211 44 0.0 0.0 0.00 0.00 0.00 76 1025.1
20260502042239 44 0.0 0.0 0.00 0.00 0.00 76 1025.0
20260502041307 44 0.0 0.0 0.00 0.00 0.00 76 1025.1
20260502040335 44 0.0 0.0 0.00 0.00 0.00 76 1025.2
20260502035404 43 0.0 0.0 0.00 0.00 0.00 77 1025.1
20260502034432 43 0.0 0.0 0.00 0.00 0.00 78 1025.2
20260502033500 43 0.0 0.0 0.00 0.00 0.00 77 1025.3
20260502032528 43 0.0 0.0 0.00 0.00 0.00 78 1025.4
20260502031557 43 0.0 0.0 0.00 0.00 0.00 77 1025.3
20260502030625 44 0.0 0.0 0.00 0.00 0.00 76 1025.3
20260502025654 44 0.0 0.0 0.00 0.00 0.00 76 1025.4
20260502024722 45 0.0 0.0 0.00 0.00 0.00 74 1025.4
20260502023750 45 0.0 0.0 0.00 0.00 0.00 74 1025.4
20260502022818 45 0.0 0.0 0.00 0.00 0.00 73 1025.4
20260502021846 44 0.0 0.0 0.00 0.00 0.00 76 1025.4
20260502020914 45 0.0 0.0 0.00 0.00 0.00 76 1025.5
20260502015943 45 0.0 0.0 0.00 0.00 0.00 76 1025.5
20260502015011 45 0.0 0.0 0.00 0.00 0.00 76 1025.5
20260502014039 45 0.0 0.0 0.00 0.00 0.00 76 1025.5
20260502013107 45 0.0 0.0 0.00 0.00 0.00 76 1025.6
20260502011204 45 0.0 0.0 0.00 0.00 0.00 76 1025.7
20260502010233 45 0.0 0.0 0.00 0.00 0.00 74 1025.7
20260502005301 45 0.0 0.0 0.00 0.00 0.00 74 1025.8
20260502004330 46 0.0 0.0 0.00 0.00 0.00 73 1025.9
20260502003400 46 0.0 0.0 0.00 0.00 0.00 72 1025.9
20260502002424 47 0.0 0.0 0.00 0.00 0.00 70 1026.0
20260502001453 47 0.0 0.0 0.00 0.00 0.00 69 1026.0
20260502000521 47 0.0 0.0 0.00 0.00 0.00 68 1026.1
20260501235549 47 0.0 0.0 0.00 0.00 0.00 69 1026.2
20260501234618 48 0.0 0.0 0.00 0.00 0.00 68 1026.2
20260501233647 49 0.0 0.0 0.00 0.00 0.00 66 1026.2
20260501232713 49 0.0 0.0 0.00 0.00 0.00 66 1026.2
20260501231741 49 0.0 0.0 0.00 0.00 0.00 66 1026.2
20260501230811 49 0.0 0.0 0.00 0.00 0.00 66 1026.1
20260501225837 50 0.0 0.0 0.00 0.00 0.00 63 1026.0
20260501224906 50 0.0 0.0 0.00 0.00 0.00 63 1026.1
20260501223934 51 0.0 0.0 0.00 0.00 0.00 63 1026.1
20260501223003 52 0.0 0.0 0.00 0.00 0.00 61 1026.0
20260501222032 53 0.0 0.0 0.00 0.00 0.00 61 1026.0
20260501221059 52 0.0 0.0 0.00 0.00 0.00 60 1026.1
20260501220125 53 0.0 0.0 0.00 0.00 0.00 57 1026.2
20260501215154 53 0.0 0.0 0.00 0.00 0.00 56 1026.1
20260501214222 54 0.0 0.0 0.00 0.00 0.00 54 1026.0
20260501213252 55 0.0 0.0 0.00 0.00 0.00 53 1025.9
20260501212318 55 0.0 0.0 0.00 0.00 0.00 53 1026.1
20260501211344 56 0.0 0.0 0.00 0.00 0.00 52 1026.0
20260501210412 56 0.0 0.0 0.00 0.00 0.00 51 1026.0
20260501205440 57 0.0 0.0 0.00 0.00 0.00 50 1026.0
20260501204508 58 0.0 0.0 0.00 0.00 0.00 48 1025.9
20260501203537 59 0.0 0.0 0.00 0.00 0.00 44 1026.0
20260501201636 60 0.0 0.0 0.00 0.00 0.00 44 1026.1
20260501200705 61 0.0 0.0 0.00 0.00 0.00 41 1026.0
20260501195733 62 0.0 0.0 0.00 0.00 0.00 40 1026.1
20260501194802 63 0.0 0.0 0.00 0.00 0.00 38 1026.1
20260501193830 63 0.0 0.0 0.00 0.00 0.00 37 1026.1
20260501192900 64 0.0 0.0 0.00 0.00 0.00 37 1025.9
20260501191928 65 0.0 0.0 0.00 0.00 0.00 34 1025.8
20260501190954 66 0.0 0.0 0.00 0.00 0.00 33 1025.8
20260501190023 67 0.0 0.0 0.00 0.00 0.00 32 1025.8
20260501185051 68 0.0 0.0 0.00 0.00 0.00 30 1025.7
20260501184119 69 0.0 0.0 0.00 0.00 0.00 30 1025.6
20260501183149 70 0.0 0.0 0.00 0.00 0.00 29 1025.7
20260501182215 71 0.0 0.0 0.00 0.00 0.00 29 1025.6
20260501181244 72 0.0 0.0 0.00 0.00 0.00 28 1025.3
20260501180313 74 0.0 0.0 0.00 0.00 0.00 27 1025.3
20260501175342 76 0.0 0.0 0.00 0.00 0.00 26 1025.2
20260501174412 77 0.0 0.0 0.00 0.00 0.00 25 1025.2
20260501173440 80 0.0 0.0 0.00 0.00 0.00 22 1025.0
20260501172508 81 0.0 0.0 0.00 0.00 0.00 21 1025.0
20260501171534 82 0.0 0.0 0.00 0.00 0.00 21 1025.0
20260501170606 83 0.0 0.0 0.00 0.00 0.00 19 1024.9
20260501165635 87 0.0 0.0 0.00 0.00 0.00 18 1024.9
20260501164701 88 0.0 0.0 0.00 0.00 0.00 17 1024.8
20260501163729 89 0.0 0.0 0.00 0.00 0.00 17 1024.9